Observations for Trim Patrick St
| Time | AQI | Temp °C | Hum % | Pres Pa | CO μg/m³ | H₂S μg/m³ | NO μg/m³ | NO₂ μg/m³ | O₃ μg/m³ | SO₂ μg/m³ | PM1 μg/m³ | PM2.5 μg/m³ | PM10 μg/m³ |
|---|---|---|---|---|---|---|---|---|---|---|---|---|---|
| Thursday 30 July 2026 | |||||||||||||
| 22:59 | 3 | 15.9 | 59 | 72,238 | 0.14 | 8.41 | 1.28 | 20.48 | 50.96 | 0 | 9.71 | 14.74 | 16.22 |
| 22:58 | 3 | 16 | 59 | 72,112 | 0.11 | 8.75 | 1.31 | 27.41 | 53.98 | 0 | 7.14 | 14.01 | 15.41 |
| 22:57 | 3 | 16 | 59 | 72,000 | 0.08 | 7.53 | 1.55 | 17.24 | 50.25 | 0 | 8 | 13.28 | 14.61 |
| 22:56 | 3 | 16 | 58 | 71,911 | 0.09 | 7.58 | 1.53 | 19.25 | 49.7 | 0 | 5.43 | 11.11 | 12.22 |
| 22:55 | 3 | 16.1 | 59 | 71,833 | 0.09 | 7.87 | 1.42 | 24.97 | 50.83 | 0 | 4.57 | 8.81 | 9.69 |
| 22:54 | 3 | 16.1 | 58 | 71,747 | 0.07 | 7.58 | 1.33 | 18.26 | 49.72 | 0 | 2.86 | 8.14 | 8.96 |
| 22:53 | 3 | 16.1 | 59 | 71,670 | 0.07 | 7.29 | 1.45 | 20.78 | 51.47 | 0 | 4.57 | 8.81 | 9.69 |
| 22:52 | 3 | 16.2 | 59 | 71,597 | 0.06 | 6.72 | 1.31 | 23.46 | 51.19 | 0 | 3.71 | 8.82 | 9.71 |
| 22:51 | 3 | 16.1 | 58 | 71,521 | 0.06 | 6.46 | 1.16 | 14.18 | 54.94 | 0 | 3.71 | 8.16 | 8.98 |
| 22:50 | 3 | 16.2 | 58 | 71,483 | 0.06 | 7.35 | 1.17 | 14.48 | 52.43 | 0 | 2.86 | 7.38 | 8.12 |
| 22:49 | 3 | 16.2 | 58 | 71,403 | 0.06 | 8.16 | 1.36 | 22.38 | 51.57 | 0 | 3.71 | 8.87 | 9.75 |
| 22:48 | 3 | 16.3 | 58 | 71,295 | 0.05 | 8.31 | 1.16 | 24.12 | 54.29 | 0 | 2 | 6.64 | 7.31 |
| 22:47 | 3 | 16.3 | 58 | 71,155 | 0.04 | 8.05 | 1.12 | 17.7 | 51.1 | 0 | 2.86 | 7.39 | 8.13 |
| 22:46 | 3 | 16.3 | 58 | 71,026 | 0.05 | 8.91 | 1.13 | 24.93 | 54.34 | 0 | 2.86 | 7.42 | 8.16 |
| 22:45 | 3 | 16.3 | 58 | 70,882 | 0.04 | 8.39 | 1.28 | 24.99 | 55.43 | 0 | 2.86 | 7.4 | 8.14 |
| 22:44 | 3 | 16.3 | 57 | 70,755 | 0.05 | 7.03 | 1.36 | 18.4 | 47.8 | 0 | 2 | 6.71 | 7.39 |
| 22:43 | 3 | 16.4 | 57 | 70,669 | 0.04 | 7.71 | 1.49 | 17.08 | 55.69 | 0 | 2 | 5.95 | 6.55 |
| 22:42 | 3 | 16.4 | 58 | 70,615 | 0.05 | 7.58 | 1.5 | 17.53 | 51.5 | 0 | 2 | 6.69 | 7.36 |
| 22:41 | 3 | 16.4 | 58 | 70,541 | 0.06 | 7.95 | 1.83 | 24.41 | 54.11 | 0 | 2 | 6.67 | 7.34 |
| 22:40 | 3 | 16.4 | 57 | 70,447 | 0.05 | 8.08 | 1.61 | 16.59 | 52.33 | 0 | 2.86 | 8.23 | 9.05 |